owner,sensor,date,latitude,longitude,vertical_datum,wind_speed,wind_to_direction,wind_speed_of_gust,qcFlag 
ADCP,ioos:station:wmo:42887:1,2014-08-01T00:00:00Z,28.1910,-88.4960,48.2,2.5,341.0,99.0,'11111222,11111222,11144222' 
ADCP,ioos:station:wmo:42887:1,2014-08-01T00:20:00Z,28.1910,-88.4960,48.2,1.3,342.0,99.0,'11111222,11111222,11144222' 
ADCP,ioos:station:wmo:42887:1,2014-08-01T00:40:00Z,28.1910,-88.4960,48.2,2.0,353.0,99.0,'11111222,11111222,11144222' 
ADCP,ioos:station:wmo:42887:1,2014-08-01T01:00:00Z,28.1910,-88.4960,48.2,2.1,9.0,99.0,'11111222,11111222,11144222' 
ADCP,ioos:station:wmo:42887:1,2014-08-01T01:20:00Z,28.1910,-88.4960,48.2,2.3,16.0,99.0,'11111222,11111222,11144222' 
ADCP,ioos:station:wmo:42887:1,2014-08-01T01:40:00Z,28.1910,-88.4960,48.2,0.5,22.0,99.0,'11111222,11111222,11144222' 
ADCP,ioos:station:wmo:42887:1,2014-08-01T02:00:00Z,28.1910,-88.4960,48.2,1.9,23.0,99.0,'11111222,11111222,11144222' 
ADCP,ioos:station:wmo:42887:1,2014-08-01T02:20:00Z,28.1910,-88.4960,48.2,2.9,29.0,99.0,'11111222,11111222,11144222' 
ADCP,ioos:station:wmo:42887:1,2014-08-01T02:40:00Z,28.1910,-88.4960,48.2,1.4,30.0,99.0,'11111222,11111222,11144222' 
ADCP,ioos:station:wmo:42887:1,2014-08-01T03:00:00Z,28.1910,-88.4960,48.2,2.2,35.0,99.0,'11111222,11111222,11144222' 
ADCP,ioos:station:wmo:42887:1,2014-08-01T03:20:00Z,28.1910,-88.4960,48.2,2.7,43.0,99.0,'11111222,11111222,11144222' 
ADCP,ioos:station:wmo:42887:1,2014-08-01T03:40:00Z,28.1910,-88.4960,48.2,0.9,66.0,99.0,'11111222,11111222,11144222' 
ADCP,ioos:station:wmo:42887:1,2014-08-01T04:00:00Z,28.1910,-88.4960,48.2,1.4,64.0,99.0,'11111222,11111222,11144222' 
ADCP,ioos:station:wmo:42887:1,2014-08-01T04:20:00Z,28.1910,-88.4960,48.2,2.1,66.0,99.0,'11111222,11111222,11144222' 
ADCP,ioos:station:wmo:42887:1,2014-08-01T04:40:00Z,28.1910,-88.4960,48.2,2.5,81.0,99.0,'11111222,11111222,11144222' 
ADCP,ioos:station:wmo:42887:1,2014-08-01T05:00:00Z,28.1910,-88.4960,48.2,1.9,81.0,99.0,'11111222,11111222,11144222' 
ADCP,ioos:station:wmo:42887:1,2014-08-01T05:20:00Z,28.1910,-88.4960,48.2,1.4,74.0,99.0,'11111222,11111222,11144222' 
ADCP,ioos:station:wmo:42887:1,2014-08-01T05:40:00Z,28.1910,-88.4960,48.2,2.1,75.0,99.0,'11111222,11111222,11144222' 
ADCP,ioos:station:wmo:42887:1,2014-08-01T06:00:00Z,28.1910,-88.4960,48.2,1.8,79.0,99.0,'11111222,11111222,11144222' 
ADCP,ioos:station:wmo:42887:1,2014-08-01T06:20:00Z,28.1910,-88.4960,48.2,0.1,80.0,99.0,'11111222,11111222,11144222' 
ADCP,ioos:station:wmo:42887:1,2014-08-01T06:40:00Z,28.1910,-88.4960,48.2,1.7,77.0,99.0,'11111222,11111222,11144222' 
ADCP,ioos:station:wmo:42887:1,2014-08-01T07:00:00Z,28.1910,-88.4960,48.2,1.7,78.0,99.0,'11111222,11111222,11144222' 
ADCP,ioos:station:wmo:42887:1,2014-08-01T07:20:00Z,28.1910,-88.4960,48.2,1.0,79.0,99.0,'11111222,11111222,11144222' 
ADCP,ioos:station:wmo:42887:1,2014-08-01T07:40:00Z,28.1910,-88.4960,48.2,2.1,91.0,99.0,'11111222,11111222,11144222' 
ADCP,ioos:station:wmo:42887:1,2014-08-01T08:00:00Z,28.1910,-88.4960,48.2,0.8,92.0,99.0,'11111222,11111222,11144222' 
ADCP,ioos:station:wmo:42887:1,2014-08-01T08:20:00Z,28.1910,-88.4960,48.2,1.1,91.0,99.0,'11111222,11111222,11144222' 
ADCP,ioos:station:wmo:42887:1,2014-08-01T08:40:00Z,28.1910,-88.4960,48.2,0.0,68.0,99.0,'11111222,11111222,11144222' 
ADCP,ioos:station:wmo:42887:1,2014-08-01T09:00:00Z,28.1910,-88.4960,48.2,0.0,92.0,99.0,'11111222,11111222,11144222' 
ADCP,ioos:station:wmo:42887:1,2014-08-01T09:20:00Z,28.1910,-88.4960,48.2,1.0,85.0,99.0,'11111222,11111222,11144222' 
ADCP,ioos:station:wmo:42887:1,2014-08-01T09:40:00Z,28.1910,-88.4960,48.2,0.8,91.0,99.0,'11111222,11111222,11144222' 
ADCP,ioos:station:wmo:42887:1,2014-08-01T10:00:00Z,28.1910,-88.4960,48.2,0.5,91.0,99.0,'11111222,11111222,11144222' 
ADCP,ioos:station:wmo:42887:1,2014-08-01T10:20:00Z,28.1910,-88.4960,48.2,1.1,92.0,99.0,'11111222,11111222,11144222' 
ADCP,ioos:station:wmo:42887:1,2014-08-01T10:40:00Z,28.1910,-88.4960,48.2,0.3,92.0,99.0,'11111222,11111222,11144222' 
ADCP,ioos:station:wmo:42887:1,2014-08-01T11:00:00Z,28.1910,-88.4960,48.2,0.0,86.0,99.0,'11111222,11111222,11144222' 
ADCP,ioos:station:wmo:42887:1,2014-08-01T11:20:00Z,28.1910,-88.4960,48.2,1.0,92.0,99.0,'11111222,11111222,11144222' 
ADCP,ioos:station:wmo:42887:1,2014-08-01T11:40:00Z,28.1910,-88.4960,48.2,0.0,232.0,99.0,'11111222,11111222,11144222' 
ADCP,ioos:station:wmo:42887:1,2014-08-01T12:00:00Z,28.1910,-88.4960,48.2,1.2,91.0,99.0,'11111222,11111222,11144222' 
ADCP,ioos:station:wmo:42887:1,2014-08-01T12:20:00Z,28.1910,-88.4960,48.2,1.3,92.0,99.0,'11111222,11111222,11144222' 
ADCP,ioos:station:wmo:42887:1,2014-08-01T12:40:00Z,28.1910,-88.4960,48.2,1.0,91.0,99.0,'11111222,11111222,11144222' 
ADCP,ioos:station:wmo:42887:1,2014-08-01T13:00:00Z,28.1910,-88.4960,48.2,0.4,209.0,99.0,'11111222,11111222,11144222' 
ADCP,ioos:station:wmo:42887:1,2014-08-01T13:20:00Z,28.1910,-88.4960,48.2,1.5,93.0,99.0,'11111222,11111222,11144222' 
ADCP,ioos:station:wmo:42887:1,2014-08-01T13:40:00Z,28.1910,-88.4960,48.2,1.0,93.0,99.0,'11111222,11111222,11144222' 
ADCP,ioos:station:wmo:42887:1,2014-08-01T14:00:00Z,28.1910,-88.4960,48.2,0.9,92.0,99.0,'11111222,11111222,11144222' 
ADCP,ioos:station:wmo:42887:1,2014-08-01T14:20:00Z,28.1910,-88.4960,48.2,0.1,200.0,99.0,'11111222,11111222,11144222' 
ADCP,ioos:station:wmo:42887:1,2014-08-01T14:40:00Z,28.1910,-88.4960,48.2,1.0,92.0,99.0,'11111222,11111222,11144222' 
ADCP,ioos:station:wmo:42887:1,2014-08-01T15:00:00Z,28.1910,-88.4960,48.2,0.6,90.0,99.0,'11111222,11111222,11144222' 
ADCP,ioos:station:wmo:42887:1,2014-08-01T15:20:00Z,28.1910,-88.4960,48.2,1.2,92.0,99.0,'11111222,11111222,11144222' 
ADCP,ioos:station:wmo:42887:1,2014-08-01T15:40:00Z,28.1910,-88.4960,48.2,0.7,90.0,99.0,'11111222,11111222,11144222' 
ADCP,ioos:station:wmo:42887:1,2014-08-01T16:00:00Z,28.1910,-88.4960,48.2,1.3,91.0,99.0,'11111222,11111222,11144222' 
ADCP,ioos:station:wmo:42887:1,2014-08-01T16:20:00Z,28.1910,-88.4960,48.2,0.1,168.0,99.0,'11111222,11111222,11144222' 
ADCP,ioos:station:wmo:42887:1,2014-08-01T16:40:00Z,28.1910,-88.4960,48.2,0.8,90.0,99.0,'11111222,11111222,11144222' 
ADCP,ioos:station:wmo:42887:1,2014-08-01T17:00:00Z,28.1910,-88.4960,48.2,0.3,91.0,99.0,'11111222,11111222,11144222' 
ADCP,ioos:station:wmo:42887:1,2014-08-01T17:20:00Z,28.1910,-88.4960,48.2,1.0,90.0,99.0,'11111222,11111222,11144222' 
ADCP,ioos:station:wmo:42887:1,2014-08-01T17:40:00Z,28.1910,-88.4960,48.2,1.5,352.0,99.0,'11111222,11111222,11144222' 
ADCP,ioos:station:wmo:42887:1,2014-08-01T18:00:00Z,28.1910,-88.4960,48.2,0.7,355.0,99.0,'11111222,11111222,11144222' 
ADCP,ioos:station:wmo:42887:1,2014-08-01T18:20:00Z,28.1910,-88.4960,48.2,1.7,355.0,99.0,'11111222,11111222,11144222' 
ADCP,ioos:station:wmo:42887:1,2014-08-01T18:40:00Z,28.1910,-88.4960,48.2,1.4,355.0,99.0,'11111222,11111222,11144222' 
ADCP,ioos:station:wmo:42887:1,2014-08-01T19:00:00Z,28.1910,-88.4960,48.2,1.0,356.0,99.0,'11111222,11111222,11144222' 
ADCP,ioos:station:wmo:42887:1,2014-08-01T19:20:00Z,28.1910,-88.4960,48.2,1.1,67.0,99.0,'11111222,11111222,11144222' 
ADCP,ioos:station:wmo:42887:1,2014-08-01T19:40:00Z,28.1910,-88.4960,48.2,0.2,243.0,99.0,'11111222,11111222,11144222' 
ADCP,ioos:station:wmo:42887:1,2014-08-01T20:00:00Z,28.1910,-88.4960,48.2,0.1,354.0,99.0,'11111222,11111222,11144222' 
ADCP,ioos:station:wmo:42887:1,2014-08-01T20:20:00Z,28.1910,-88.4960,48.2,1.7,355.0,99.0,'11111222,11111222,11144222' 
ADCP,ioos:station:wmo:42887:1,2014-08-01T20:40:00Z,28.1910,-88.4960,48.2,1.8,355.0,99.0,'11111222,11111222,11144222' 
ADCP,ioos:station:wmo:42887:1,2014-08-01T21:00:00Z,28.1910,-88.4960,48.2,2.1,355.0,99.0,'11111222,11111222,11144222' 
ADCP,ioos:station:wmo:42887:1,2014-08-01T21:20:00Z,28.1910,-88.4960,48.2,2.1,336.0,99.0,'11111222,11111222,11144222' 
ADCP,ioos:station:wmo:42887:1,2014-08-01T21:40:00Z,28.1910,-88.4960,48.2,1.8,338.0,99.0,'11111222,11111222,11144222' 
ADCP,ioos:station:wmo:42887:1,2014-08-01T22:00:00Z,28.1910,-88.4960,48.2,1.7,337.0,99.0,'11111222,11111222,11144222' 
ADCP,ioos:station:wmo:42887:1,2014-08-01T22:20:00Z,28.1910,-88.4960,48.2,1.5,337.0,99.0,'11111222,11111222,11144222' 
ADCP,ioos:station:wmo:42887:1,2014-08-01T22:40:00Z,28.1910,-88.4960,48.2,1.4,338.0,99.0,'11111222,11111222,11144222' 
ADCP,ioos:station:wmo:42887:1,2014-08-01T23:00:00Z,28.1910,-88.4960,48.2,2.2,338.0,99.0,'11111222,11111222,11144222' 
ADCP,ioos:station:wmo:42887:1,2014-08-01T23:20:00Z,28.1910,-88.4960,48.2,2.1,349.0,99.0,'11111222,11111222,11144222' 
ADCP,ioos:station:wmo:42887:1,2014-08-01T23:40:00Z,28.1910,-88.4960,48.2,2.8,351.0,99.0,'11111222,11111222,11144222' 
ADCP,ioos:station:wmo:42887:1,2014-08-02T00:00:00Z,28.1910,-88.4960,48.2,3.5,350.0,99.0,'11111222,11111222,11144222' 
ADCP,ioos:station:wmo:42887:1,2014-08-02T00:20:00Z,28.1910,-88.4960,48.2,3.0,23.0,99.0,'11111222,11111222,11144222' 
ADCP,ioos:station:wmo:42887:1,2014-08-02T00:40:00Z,28.1910,-88.4960,48.2,1.9,34.0,99.0,'11111222,11111222,11144222' 
ADCP,ioos:station:wmo:42887:1,2014-08-02T01:00:00Z,28.1910,-88.4960,48.2,3.8,44.0,99.0,'11111222,11111222,11144222' 
ADCP,ioos:station:wmo:42887:1,2014-08-02T01:20:00Z,28.1910,-88.4960,48.2,1.4,53.0,99.0,'11111222,11111222,11144222' 
ADCP,ioos:station:wmo:42887:1,2014-08-02T01:40:00Z,28.1910,-88.4960,48.2,1.0,57.0,99.0,'11111222,11111222,11144222' 
ADCP,ioos:station:wmo:42887:1,2014-08-02T02:00:00Z,28.1910,-88.4960,48.2,2.2,66.0,99.0,'11111222,11111222,11144222' 
ADCP,ioos:station:wmo:42887:1,2014-08-02T02:20:00Z,28.1910,-88.4960,48.2,1.2,74.0,99.0,'11111222,11111222,11144222' 
ADCP,ioos:station:wmo:42887:1,2014-08-02T02:40:00Z,28.1910,-88.4960,48.2,3.1,74.0,99.0,'11111222,11111222,11144222' 
ADCP,ioos:station:wmo:42887:1,2014-08-02T03:00:00Z,28.1910,-88.4960,48.2,2.0,80.0,99.0,'11111222,11111222,11144222' 
ADCP,ioos:station:wmo:42887:1,2014-08-02T03:20:00Z,28.1910,-88.4960,48.2,2.4,78.0,99.0,'11111222,11111222,11144222' 
ADCP,ioos:station:wmo:42887:1,2014-08-02T03:40:00Z,28.1910,-88.4960,48.2,4.4,84.0,99.0,'11111222,11111222,11144222' 
ADCP,ioos:station:wmo:42887:1,2014-08-02T04:00:00Z,28.1910,-88.4960,48.2,2.7,94.0,99.0,'11111222,11111222,11144222' 
ADCP,ioos:station:wmo:42887:1,2014-08-02T04:20:00Z,28.1910,-88.4960,48.2,2.6,82.0,99.0,'11111222,11111222,11144222' 
ADCP,ioos:station:wmo:42887:1,2014-08-02T04:40:00Z,28.1910,-88.4960,48.2,4.1,96.0,99.0,'11111222,11111222,11144222' 
ADCP,ioos:station:wmo:42887:1,2014-08-02T05:00:00Z,28.1910,-88.4960,48.2,2.6,92.0,99.0,'11111222,11111222,11144222' 
ADCP,ioos:station:wmo:42887:1,2014-08-02T05:20:00Z,28.1910,-88.4960,48.2,3.7,94.0,99.0,'11111222,11111222,11144222' 
ADCP,ioos:station:wmo:42887:1,2014-08-02T05:40:00Z,28.1910,-88.4960,48.2,2.1,95.0,99.0,'11111222,11111222,11144222' 
ADCP,ioos:station:wmo:42887:1,2014-08-02T06:00:00Z,28.1910,-88.4960,48.2,2.6,95.0,99.0,'11111222,11111222,11144222' 
ADCP,ioos:station:wmo:42887:1,2014-08-02T06:20:00Z,28.1910,-88.4960,48.2,2.2,95.0,99.0,'11111222,11111222,11144222' 
ADCP,ioos:station:wmo:42887:1,2014-08-02T06:40:00Z,28.1910,-88.4960,48.2,2.0,95.0,99.0,'11111222,11111222,11144222' 
ADCP,ioos:station:wmo:42887:1,2014-08-02T07:00:00Z,28.1910,-88.4960,48.2,3.2,95.0,99.0,'11111222,11111222,11144222' 
ADCP,ioos:station:wmo:42887:1,2014-08-02T07:20:00Z,28.1910,-88.4960,48.2,2.4,95.0,99.0,'11111222,11111222,11144222' 
ADCP,ioos:station:wmo:42887:1,2014-08-02T07:40:00Z,28.1910,-88.4960,48.2,2.0,96.0,99.0,'11111222,11111222,11144222' 
ADCP,ioos:station:wmo:42887:1,2014-08-02T08:00:00Z,28.1910,-88.4960,48.2,1.8,95.0,99.0,'11111222,11111222,11144222' 
ADCP,ioos:station:wmo:42887:1,2014-08-02T08:20:00Z,28.1910,-88.4960,48.2,1.7,96.0,99.0,'11111222,11111222,11144222' 
ADCP,ioos:station:wmo:42887:1,2014-08-02T08:40:00Z,28.1910,-88.4960,48.2,0.2,198.0,99.0,'11111222,11111222,11144222' 
ADCP,ioos:station:wmo:42887:1,2014-08-02T09:00:00Z,28.1910,-88.4960,48.2,2.1,95.0,99.0,'11111222,11111222,11144222' 
ADCP,ioos:station:wmo:42887:1,2014-08-02T09:20:00Z,28.1910,-88.4960,48.2,1.3,95.0,99.0,'11111222,11111222,11144222' 
ADCP,ioos:station:wmo:42887:1,2014-08-02T09:40:00Z,28.1910,-88.4960,48.2,0.2,292.0,99.0,'11111222,11111222,11144222' 
ADCP,ioos:station:wmo:42887:1,2014-08-02T10:00:00Z,28.1910,-88.4960,48.2,0.8,96.0,99.0,'11111222,11111222,11144222' 
ADCP,ioos:station:wmo:42887:1,2014-08-02T10:20:00Z,28.1910,-88.4960,48.2,0.0,92.0,99.0,'11111222,11111222,11144222' 
ADCP,ioos:station:wmo:42887:1,2014-08-02T10:40:00Z,28.1910,-88.4960,48.2,0.6,95.0,99.0,'11111222,11111222,11144222' 
ADCP,ioos:station:wmo:42887:1,2014-08-02T11:00:00Z,28.1910,-88.4960,48.2,0.0,277.0,99.0,'11111222,11111222,11144222' 
ADCP,ioos:station:wmo:42887:1,2014-08-02T11:20:00Z,28.1910,-88.4960,48.2,0.4,95.0,99.0,'11111222,11111222,11144222' 
ADCP,ioos:station:wmo:42887:1,2014-08-02T11:40:00Z,28.1910,-88.4960,48.2,0.0,84.0,99.0,'11111222,11111222,11144222' 
ADCP,ioos:station:wmo:42887:1,2014-08-02T12:00:00Z,28.1910,-88.4960,48.2,0.6,66.0,99.0,'11111222,11111222,11144222' 
ADCP,ioos:station:wmo:42887:1,2014-08-02T12:20:00Z,28.1910,-88.4960,48.2,0.4,52.0,99.0,'11111222,11111222,11144222' 
ADCP,ioos:station:wmo:42887:1,2014-08-02T12:40:00Z,28.1910,-88.4960,48.2,0.9,81.0,99.0,'11111222,11111222,11144222' 
ADCP,ioos:station:wmo:42887:1,2014-08-02T13:00:00Z,28.1910,-88.4960,48.2,1.3,66.0,99.0,'11111222,11111222,11144222' 
ADCP,ioos:station:wmo:42887:1,2014-08-02T13:20:00Z,28.1910,-88.4960,48.2,1.0,55.0,99.0,'11111222,11111222,11144222' 
ADCP,ioos:station:wmo:42887:1,2014-08-02T13:40:00Z,28.1910,-88.4960,48.2,1.3,77.0,99.0,'11111222,11111222,11144222' 
ADCP,ioos:station:wmo:42887:1,2014-08-02T14:00:00Z,28.1910,-88.4960,48.2,1.5,60.0,99.0,'11111222,11111222,11144222' 
ADCP,ioos:station:wmo:42887:1,2014-08-02T14:20:00Z,28.1910,-88.4960,48.2,1.8,52.0,99.0,'11111222,11111222,11144222' 
ADCP,ioos:station:wmo:42887:1,2014-08-02T14:40:00Z,28.1910,-88.4960,48.2,2.1,84.0,99.0,'11111222,11111222,11144222' 
ADCP,ioos:station:wmo:42887:1,2014-08-02T15:00:00Z,28.1910,-88.4960,48.2,1.7,63.0,99.0,'11111222,11111222,11144222' 
ADCP,ioos:station:wmo:42887:1,2014-08-02T15:20:00Z,28.1910,-88.4960,48.2,1.0,70.0,99.0,'11111222,11111222,11144222' 
ADCP,ioos:station:wmo:42887:1,2014-08-02T15:40:00Z,28.1910,-88.4960,48.2,2.0,86.0,99.0,'11111222,11111222,11144222' 
ADCP,ioos:station:wmo:42887:1,2014-08-02T16:00:00Z,28.1910,-88.4960,48.2,2.2,64.0,99.0,'11111222,11111222,11144222' 
ADCP,ioos:station:wmo:42887:1,2014-08-02T16:20:00Z,28.1910,-88.4960,48.2,2.4,71.0,99.0,'11111222,11111222,11144222' 
ADCP,ioos:station:wmo:42887:1,2014-08-02T16:40:00Z,28.1910,-88.4960,48.2,1.9,57.0,99.0,'11111222,11111222,11144222' 
ADCP,ioos:station:wmo:42887:1,2014-08-02T17:00:00Z,28.1910,-88.4960,48.2,1.7,23.0,99.0,'11111222,11111222,11144222' 
ADCP,ioos:station:wmo:42887:1,2014-08-02T17:20:00Z,28.1910,-88.4960,48.2,1.8,27.0,99.0,'11111222,11111222,11144222' 
ADCP,ioos:station:wmo:42887:1,2014-08-02T17:40:00Z,28.1910,-88.4960,48.2,2.2,39.0,99.0,'11111222,11111222,11144222' 
ADCP,ioos:station:wmo:42887:1,2014-08-02T18:00:00Z,28.1910,-88.4960,48.2,1.9,13.0,99.0,'11111222,11111222,11144222' 
ADCP,ioos:station:wmo:42887:1,2014-08-02T18:20:00Z,28.1910,-88.4960,48.2,2.3,13.0,99.0,'11111222,11111222,11144222' 
ADCP,ioos:station:wmo:42887:1,2014-08-02T18:40:00Z,28.1910,-88.4960,48.2,2.1,12.0,99.0,'11111222,11111222,11144222' 
ADCP,ioos:station:wmo:42887:1,2014-08-02T19:00:00Z,28.1910,-88.4960,48.2,2.2,19.0,99.0,'11111222,11111222,11144222' 
ADCP,ioos:station:wmo:42887:1,2014-08-02T19:20:00Z,28.1910,-88.4960,48.2,1.3,33.0,99.0,'11111222,11111222,11144222' 
ADCP,ioos:station:wmo:42887:1,2014-08-02T19:40:00Z,28.1910,-88.4960,48.2,1.5,22.0,99.0,'11111222,11111222,11144222' 
ADCP,ioos:station:wmo:42887:1,2014-08-02T20:00:00Z,28.1910,-88.4960,48.2,1.5,48.0,99.0,'11111222,11111222,11144222' 
ADCP,ioos:station:wmo:42887:1,2014-08-02T20:20:00Z,28.1910,-88.4960,48.2,1.3,68.0,99.0,'11111222,11111222,11144222' 
ADCP,ioos:station:wmo:42887:1,2014-08-02T20:40:00Z,28.1910,-88.4960,48.2,2.7,46.0,99.0,'11111222,11111222,11144222' 
ADCP,ioos:station:wmo:42887:1,2014-08-02T21:00:00Z,28.1910,-88.4960,48.2,2.2,47.0,99.0,'11111222,11111222,11144222' 
ADCP,ioos:station:wmo:42887:1,2014-08-02T21:20:00Z,28.1910,-88.4960,48.2,2.4,24.0,99.0,'11111222,11111222,11144222' 
ADCP,ioos:station:wmo:42887:1,2014-08-02T21:40:00Z,28.1910,-88.4960,48.2,2.9,60.0,99.0,'11111222,11111222,11144222' 
ADCP,ioos:station:wmo:42887:1,2014-08-02T22:00:00Z,28.1910,-88.4960,48.2,2.7,53.0,99.0,'11111222,11111222,11144222' 
ADCP,ioos:station:wmo:42887:1,2014-08-02T22:20:00Z,28.1910,-88.4960,48.2,3.6,55.0,99.0,'11111222,11111222,11144222' 
ADCP,ioos:station:wmo:42887:1,2014-08-02T22:40:00Z,28.1910,-88.4960,48.2,2.8,59.0,99.0,'11111222,11111222,11144222' 
ADCP,ioos:station:wmo:42887:1,2014-08-02T23:00:00Z,28.1910,-88.4960,48.2,2.6,63.0,99.0,'11111222,11111222,11144222' 
ADCP,ioos:station:wmo:42887:1,2014-08-02T23:20:00Z,28.1910,-88.4960,48.2,3.0,70.0,99.0,'11111222,11111222,11144222' 
ADCP,ioos:station:wmo:42887:1,2014-08-02T23:40:00Z,28.1910,-88.4960,48.2,3.0,76.0,99.0,'11111222,11111222,11144222' 
ADCP,ioos:station:wmo:42887:1,2014-08-03T00:00:00Z,28.1910,-88.4960,48.2,2.8,55.0,99.0,'11111222,11111222,11144222' 
ADCP,ioos:station:wmo:42887:1,2014-08-03T00:20:00Z,28.1910,-88.4960,48.2,2.6,55.0,99.0,'11111222,11111222,11144222' 
ADCP,ioos:station:wmo:42887:1,2014-08-03T00:40:00Z,28.1910,-88.4960,48.2,1.9,61.0,99.0,'11111222,11111222,11144222' 
ADCP,ioos:station:wmo:42887:1,2014-08-03T01:00:00Z,28.1910,-88.4960,48.2,2.2,55.0,99.0,'11111222,11111222,11144222' 
ADCP,ioos:station:wmo:42887:1,2014-08-03T01:20:00Z,28.1910,-88.4960,48.2,2.3,69.0,99.0,'11111222,11111222,11144222' 
ADCP,ioos:station:wmo:42887:1,2014-08-03T01:40:00Z,28.1910,-88.4960,48.2,2.0,56.0,99.0,'11111222,11111222,11144222' 
ADCP,ioos:station:wmo:42887:1,2014-08-03T02:00:00Z,28.1910,-88.4960,48.2,2.3,57.0,99.0,'11111222,11111222,11144222' 
ADCP,ioos:station:wmo:42887:1,2014-08-03T02:20:00Z,28.1910,-88.4960,48.2,2.0,74.0,99.0,'11111222,11111222,11144222' 
ADCP,ioos:station:wmo:42887:1,2014-08-03T02:40:00Z,28.1910,-88.4960,48.2,1.1,79.0,99.0,'11111222,11111222,11144222' 
ADCP,ioos:station:wmo:42887:1,2014-08-03T03:00:00Z,28.1910,-88.4960,48.2,0.7,114.0,99.0,'11111222,11111222,11144222' 
ADCP,ioos:station:wmo:42887:1,2014-08-03T03:20:00Z,28.1910,-88.4960,48.2,2.6,73.0,99.0,'11111222,11111222,11144222' 
ADCP,ioos:station:wmo:42887:1,2014-08-03T03:40:00Z,28.1910,-88.4960,48.2,2.9,64.0,99.0,'11111222,11111222,11144222' 
ADCP,ioos:station:wmo:42887:1,2014-08-03T04:00:00Z,28.1910,-88.4960,48.2,2.9,65.0,99.0,'11111222,11111222,11144222' 
ADCP,ioos:station:wmo:42887:1,2014-08-03T04:20:00Z,28.1910,-88.4960,48.2,2.9,75.0,99.0,'11111222,11111222,11144222' 
ADCP,ioos:station:wmo:42887:1,2014-08-03T04:40:00Z,28.1910,-88.4960,48.2,1.8,72.0,99.0,'11111222,11111222,11144222' 
ADCP,ioos:station:wmo:42887:1,2014-08-03T05:00:00Z,28.1910,-88.4960,48.2,2.1,70.0,99.0,'11111222,11111222,11144222' 
ADCP,ioos:station:wmo:42887:1,2014-08-03T05:20:00Z,28.1910,-88.4960,48.2,2.1,77.0,99.0,'11111222,11111222,11144222' 
ADCP,ioos:station:wmo:42887:1,2014-08-03T05:40:00Z,28.1910,-88.4960,48.2,1.7,64.0,99.0,'11111222,11111222,11144222' 
ADCP,ioos:station:wmo:42887:1,2014-08-03T06:00:00Z,28.1910,-88.4960,48.2,1.9,56.0,99.0,'11111222,11111222,11144222' 
ADCP,ioos:station:wmo:42887:1,2014-08-03T06:20:00Z,28.1910,-88.4960,48.2,1.9,69.0,99.0,'11111222,11111222,11144222' 
ADCP,ioos:station:wmo:42887:1,2014-08-03T06:40:00Z,28.1910,-88.4960,48.2,1.0,74.0,99.0,'11111222,11111222,11144222' 
ADCP,ioos:station:wmo:42887:1,2014-08-03T07:00:00Z,28.1910,-88.4960,48.2,1.2,75.0,99.0,'11111222,11111222,11144222' 
ADCP,ioos:station:wmo:42887:1,2014-08-03T07:20:00Z,28.1910,-88.4960,48.2,1.5,57.0,99.0,'11111222,11111222,11144222' 
ADCP,ioos:station:wmo:42887:1,2014-08-03T07:40:00Z,28.1910,-88.4960,48.2,0.8,81.0,99.0,'11111222,11111222,11144222' 
ADCP,ioos:station:wmo:42887:1,2014-08-03T08:00:00Z,28.1910,-88.4960,48.2,1.9,59.0,99.0,'11111222,11111222,11144222' 
ADCP,ioos:station:wmo:42887:1,2014-08-03T08:20:00Z,28.1910,-88.4960,48.2,1.6,70.0,99.0,'11111222,11111222,11144222' 
ADCP,ioos:station:wmo:42887:1,2014-08-03T08:40:00Z,28.1910,-88.4960,48.2,1.4,61.0,99.0,'11111222,11111222,11144222' 
ADCP,ioos:station:wmo:42887:1,2014-08-03T09:00:00Z,28.1910,-88.4960,48.2,1.2,71.0,99.0,'11111222,11111222,11144222' 
ADCP,ioos:station:wmo:42887:1,2014-08-03T09:20:00Z,28.1910,-88.4960,48.2,1.3,93.0,99.0,'11111222,11111222,11144222' 
ADCP,ioos:station:wmo:42887:1,2014-08-03T09:40:00Z,28.1910,-88.4960,48.2,1.0,91.0,99.0,'11111222,11111222,11144222' 
ADCP,ioos:station:wmo:42887:1,2014-08-03T10:00:00Z,28.1910,-88.4960,48.2,0.6,76.0,99.0,'11111222,11111222,11144222' 
ADCP,ioos:station:wmo:42887:1,2014-08-03T10:20:00Z,28.1910,-88.4960,48.2,0.6,47.0,99.0,'11111222,11111222,11144222' 
ADCP,ioos:station:wmo:42887:1,2014-08-03T10:40:00Z,28.1910,-88.4960,48.2,1.3,61.0,99.0,'11111222,11111222,11144222' 
ADCP,ioos:station:wmo:42887:1,2014-08-03T11:00:00Z,28.1910,-88.4960,48.2,1.7,52.0,99.0,'11111222,11111222,11144222' 
ADCP,ioos:station:wmo:42887:1,2014-08-03T11:20:00Z,28.1910,-88.4960,48.2,1.2,79.0,99.0,'11111222,11111222,11144222' 
ADCP,ioos:station:wmo:42887:1,2014-08-03T11:40:00Z,28.1910,-88.4960,48.2,1.4,51.0,99.0,'11111222,11111222,11144222' 
ADCP,ioos:station:wmo:42887:1,2014-08-03T12:00:00Z,28.1910,-88.4960,48.2,1.4,60.0,99.0,'11111222,11111222,11144222' 
ADCP,ioos:station:wmo:42887:1,2014-08-03T12:20:00Z,28.1910,-88.4960,48.2,1.4,36.0,99.0,'11111222,11111222,11144222' 
ADCP,ioos:station:wmo:42887:1,2014-08-03T12:40:00Z,28.1910,-88.4960,48.2,1.4,24.0,99.0,'11111222,11111222,11144222' 
ADCP,ioos:station:wmo:42887:1,2014-08-03T13:00:00Z,28.1910,-88.4960,48.2,1.2,55.0,99.0,'11111222,11111222,11144222' 
ADCP,ioos:station:wmo:42887:1,2014-08-03T13:20:00Z,28.1910,-88.4960,48.2,2.0,40.0,99.0,'11111222,11111222,11144222' 
ADCP,ioos:station:wmo:42887:1,2014-08-03T13:40:00Z,28.1910,-88.4960,48.2,2.3,32.0,99.0,'11111222,11111222,11144222' 
ADCP,ioos:station:wmo:42887:1,2014-08-03T14:00:00Z,28.1910,-88.4960,48.2,1.8,55.0,99.0,'11111222,11111222,11144222' 
ADCP,ioos:station:wmo:42887:1,2014-08-03T14:20:00Z,28.1910,-88.4960,48.2,1.9,32.0,99.0,'11111222,11111222,11144222' 
ADCP,ioos:station:wmo:42887:1,2014-08-03T14:40:00Z,28.1910,-88.4960,48.2,1.7,52.0,99.0,'11111222,11111222,11144222' 
ADCP,ioos:station:wmo:42887:1,2014-08-03T15:00:00Z,28.1910,-88.4960,48.2,1.4,15.0,99.0,'11111222,11111222,11144222' 
ADCP,ioos:station:wmo:42887:1,2014-08-03T15:20:00Z,28.1910,-88.4960,48.2,1.1,57.0,99.0,'11111222,11111222,11144222' 
ADCP,ioos:station:wmo:42887:1,2014-08-03T15:40:00Z,28.1910,-88.4960,48.2,0.6,56.0,99.0,'11111222,11111222,11144222' 
ADCP,ioos:station:wmo:42887:1,2014-08-03T16:00:00Z,28.1910,-88.4960,48.2,1.1,36.0,99.0,'11111222,11111222,11144222' 
ADCP,ioos:station:wmo:42887:1,2014-08-03T16:20:00Z,28.1910,-88.4960,48.2,1.4,41.0,99.0,'11111222,11111222,11144222' 
ADCP,ioos:station:wmo:42887:1,2014-08-03T16:40:00Z,28.1910,-88.4960,48.2,1.3,23.0,99.0,'11111222,11111222,11144222' 
ADCP,ioos:station:wmo:42887:1,2014-08-03T17:00:00Z,28.1910,-88.4960,48.2,1.7,19.0,99.0,'11111222,11111222,11144222' 
ADCP,ioos:station:wmo:42887:1,2014-08-03T17:20:00Z,28.1910,-88.4960,48.2,1.8,17.0,99.0,'11111222,11111222,11144222' 
ADCP,ioos:station:wmo:42887:1,2014-08-03T17:40:00Z,28.1910,-88.4960,48.2,2.5,12.0,99.0,'11111222,11111222,11144222' 
ADCP,ioos:station:wmo:42887:1,2014-08-03T18:00:00Z,28.1910,-88.4960,48.2,2.3,16.0,99.0,'11111222,11111222,11144222' 
ADCP,ioos:station:wmo:42887:1,2014-08-03T18:20:00Z,28.1910,-88.4960,48.2,2.0,12.0,99.0,'11111222,11111222,11144222' 
ADCP,ioos:station:wmo:42887:1,2014-08-03T18:40:00Z,28.1910,-88.4960,48.2,2.6,10.0,99.0,'11111222,11111222,11144222' 
ADCP,ioos:station:wmo:42887:1,2014-08-03T19:00:00Z,28.1910,-88.4960,48.2,3.1,8.0,99.0,'11111222,11111222,11144222' 
ADCP,ioos:station:wmo:42887:1,2014-08-03T19:20:00Z,28.1910,-88.4960,48.2,2.9,21.0,99.0,'11111222,11111222,11144222' 